Klamath Falls, OR

9:42 PM PDT on May 29, 2017 (GMT -0700)
Klamath Falls International

Weather History for KLMT - August, 2014

Change the Weather History Date:

Tuesday, August 12, 2014

  Actual Average Record
Temperature  
Mean Temperature 65 °F 66 °F  
Max Temperature 79 °F 84 °F 97 °F (1998)
Min Temperature 50 °F 48 °F 37 °F (1969)
Degree Days  
Heating Degree Days 0 2  
Month to date heating degree days 0 17  
Since 1 June heating degree days 185 284  
Since 1 July heating degree days 10 67  
Cooling Degree Days 0 3  
Month to date cooling degree days 67 36  
Year to date cooling degree days 295 130  
Since 1 June cooling degree days 295 129  
Growing Degree Days 14 (Base 50)    
Moisture  
Dew Point 45 °F    
Average Humidity 53    
Maximum Humidity 86    
Minimum Humidity 19    
Precipitation  
Precipitation T in 0.01 in 0.07 in (1965)
Month to date precipitation 0.73 0.15  
Year to date precipitation 7.32 9.46  
Sea Level Pressure  
Sea Level Pressure 29.92 in    
Wind  
Wind Speed 6 mph (SE)    
Max Wind Speed 26 mph    
Max Gust Speed 30 mph    
Visibility 10 miles    
Events Rain , Thunderstorm    
T = Trace of Precipitation, MM = Missing Value Source: NWS Daily Summary

Daily Weather History Graph

Daily Weather History Graph

Search for Another Location

Airport or City:

Trip Planner

Search our weather history database for the weather conditions in past years. The results will help you decide how hot, cold, wet, or windy it might be!

Date:

Astronomy

Aug. 12, 2014 Rise Set
Actual Time 6:11 AM PDT 8:11 PM PDT
Civil Twilight 5:40 AM PDT 8:42 PM PDT
Nautical Twilight 5:03 AM PDT 9:19 PM PDT
Astronomical Twilight 4:22 AM PDT 9:59 PM PDT
Moon 9:18 PM PDT (8/12) 8:38 AM PDT (8/12)
Length of Visible Light 15h 01m
Length of Day
14h 00m
Waning Gibbous, 94% of the Moon is Illuminated
Aug 12
Waning Gibbous
Aug 17
Last Quarter
Aug 25
New
Sep 2
First Quarter
Sep 8
Full

Hourly Weather History & Observations

Time (PDT) Temp. Dew Point Humidity Pressure Visibility Wind Dir Wind Speed Gust Speed Precip Events Conditions
12:53 AM 57.9 °F 50.0 °F 75% 29.95 in 10.0 mi East 5.8 mph - N/A   Clear
2:53 AM 54.0 °F 46.9 °F 77% 29.94 in 10.0 mi Calm Calm - N/A   Partly Cloudy
3:53 AM 53.1 °F 48.0 °F 83% 29.95 in 10.0 mi SSE 4.6 mph - N/A   Partly Cloudy
4:53 AM 52.0 °F 46.9 °F 83% 29.96 in 10.0 mi Calm Calm - N/A   Clear
5:53 AM 53.1 °F 46.9 °F 80% 29.94 in 10.0 mi Calm Calm - N/A   Clear
6:53 AM 50.0 °F 46.9 °F 89% 29.95 in 10.0 mi ESE 4.6 mph - N/A   Clear
7:53 AM 57.0 °F 50.0 °F 77% 29.96 in 10.0 mi Calm Calm - N/A   Partly Cloudy
8:53 AM 64.0 °F 48.9 °F 58% 29.94 in 10.0 mi SE 5.8 mph - N/A   Clear
10:53 AM 75.0 °F 48.0 °F 38% 29.89 in 10.0 mi East 5.8 mph - N/A   Partly Cloudy
11:53 AM 75.0 °F 46.9 °F 37% 29.89 in 10.0 mi Calm Calm - N/A   Mostly Cloudy
12:53 PM 68.0 °F 48.0 °F 49% 29.91 in 10.0 mi SSE 17.3 mph - 0.00 in Rain Light Rain
1:03 PM 71.1 °F 37.9 °F 30% 30.01 in 10.0 mi SW 15.0 mph 28.8 mph 0.00 in Rain , Thunderstorm Light Thunderstorms and Rain
1:16 PM 71.1 °F 46.0 °F 41% 30.00 in 10.0 mi ESE 9.2 mph - 0.00 in   Mostly Cloudy
1:53 PM 71.1 °F 46.9 °F 42% 29.91 in 10.0 mi East 13.8 mph 24.2 mph 0.00 in   Clear
2:53 PM 73.9 °F 46.9 °F 38% 29.90 in 10.0 mi East 21.9 mph 26.5 mph N/A   Clear
3:53 PM 75.9 °F 48.0 °F 37% 29.86 in 10.0 mi East 11.5 mph 19.6 mph N/A   Clear
4:53 PM 78.1 °F 37.9 °F 24% 29.85 in 10.0 mi SSE 11.5 mph - N/A   Clear
5:53 PM 78.1 °F 34.0 °F 20% 29.83 in 10.0 mi South 15.0 mph - N/A   Clear
6:53 PM 73.0 °F 34.0 °F 24% 29.85 in 10.0 mi South 12.7 mph - N/A   Clear
7:53 PM 70.0 °F 37.9 °F 31% 29.87 in 10.0 mi Variable 6.9 mph 20.7 mph N/A   Clear
8:53 PM 66.0 °F 48.9 °F 54% 29.89 in 10.0 mi NW 15.0 mph - N/A   Clear
9:53 PM 60.1 °F 48.0 °F 64% 29.91 in 10.0 mi Calm Calm - N/A   Clear
10:53 PM 57.9 °F 46.9 °F 67% 29.91 in 10.0 mi Calm Calm - N/A   Clear
11:53 PM 59.0 °F 46.9 °F 64% 29.91 in 10.0 mi Calm Calm - N/A   Clear